Location: Bargu�
(14.7912°N, 3.0620°W)
Time: 16:08:44
(UTC+00:00)

Daily predictions for brighter satellites

Satellite Brightness Start Highest point End
(mag) Time Altitude Azimuth Time Altitude Azimuth Time Altitude Azimuth
Cosmos 2369 3.8 17:59:30 10° N 18:05:06 58° ENE 18:10:40 10° SSE
USA 229 DEB 4.1 18:03:10 10° NNW 18:10:58 83° ENE 18:18:55 10° SSE
USA 229 4.1 18:03:16 10° NNW 18:11:03 82° ENE 18:19:00 10° SSE
Molniya-1 4.4 18:08:17 10° S 18:11:12 28° ESE 18:14:55 10° NE
CZ-4B DEB 4.2 18:06:02 10° SSE 18:11:32 72° ENE 18:17:01 10° N
NOSS 3-3 (A) 3.9 18:07:12 10° SSW 18:12:33 74° WNW 18:18:11 10° NNE
NOSS 3-3 (C) 3.9 18:07:17 10° SSW 18:12:38 75° WNW 18:18:17 10° NNE
Aurora 2 Rocket 3.2 18:08:25 10° NW 18:12:44 50° NNE 18:18:50 10° E
Cosmos 1937 Rocket 3.9 18:08:33 10° NNW 18:13:48 70° WSW 18:19:01 10° S
ATLAS 5 CENTAUR R/B 2.7 17:55:03 10° WSW 18:14:41 86° SSE 18:19:11 11° ENE
Meteor 1-5 Rocket 4.4 18:08:58 10° N 18:14:43 58° E 18:20:18 10° SSE
Cosmos 372 Rocket 4.0 18:10:09 10° N 18:15:21 68° ENE 18:20:33 10° SSE
Meteor 2-16 Rocket 4.4 18:09:54 10° N 18:16:00 68° E 18:22:05 10° SSE
Meteor 2-15 Rocket 4.4 18:10:25 10° S 18:16:31 73° E 18:22:36 10° N
USA 276 2.0 18:14:43 10° NNW 18:17:48 64° NE 18:20:52 10° SE
MOS 1-B 4.3 18:20:48 10° SSE 18:26:31 68° ENE 18:32:13 10° N
Cosmos 2278 3.9 18:22:31 10° N 18:27:57 47° ENE 18:33:20 10° SE
COSMO-SKYMED 1 3.8 18:24:56 10° N 18:29:01 42° WNW 18:33:06 10° SSW
Cosmos 1633 Rocket 3.1 18:27:33 10° N 18:31:57 82° W 18:36:21 10° S
CZ-2D R/B 3.7 18:29:21 10° S 18:33:09 63° W 18:36:56 10° NNW
CZ-2C R/B 4.0 18:34:15 10° N 18:38:58 38° WNW 18:43:45 10° SW
CZ-4B R/B 3.1 18:33:42 10° SSE 18:39:08 66° ENE 18:44:28 10° N
SWIFT 2.4 18:36:32 10° WNW 18:40:45 79° SSW 18:43:56 17° ESE
Meteor 1-27 Rocket 3.8 18:35:46 10° S 18:41:19 79° W 18:46:49 10° N
CZ-4C R/B 3.4 18:38:07 10° N 18:46:03 49° ENE 18:54:22 10° SE
Okean O Rocket 1.6 18:42:54 10° SSE 18:47:16 63° ENE 18:51:40 10° N
SL-27 R/B 2.3 18:45:01 10° S 18:48:25 69° ESE 18:50:15 25° NNE
GPS 2-12 Rocket1 3.0 18:44:01 10° W 18:48:31 67° NNW 18:50:36 30° ENE
SL-24 R/B - RUBIN 2 3.5 18:46:13 10° NNW 18:50:30 88° WSW 18:54:57 10° SSE
Cosmos 1833 4.3 18:44:57 10° SSW 18:50:33 79° WNW 18:56:09 10° NNE
Cosmos 2266 Rocket 4.0 18:45:09 10° N 18:51:31 69° E 18:57:51 10° SSE
IRAS Rocket 4.1 18:49:05 10° NNE 18:54:37 81° ESE 19:00:11 10° S
Cosmos 1933 Rocket 3.5 18:53:58 10° N 18:58:13 59° E 19:02:28 10° SSE
Aureole 3 Rocket 4.2 18:59:46 10° SSW 19:02:55 36° W 19:06:53 10° NNW
Cosmos 1470 Rocket 4.2 18:59:46 10° NNW 19:04:09 58° W 19:08:32 10° S
Cosmos 1536 2.9 19:09:03 54° ESE 19:09:03 54° ESE 19:12:37 10° SSE
deb Chang Zheng 4 4.5 19:06:44 10° S 19:10:53 49° WSW 19:15:02 10° NNW
CRRES 4.2 19:09:23 10° W 19:11:48 68° N 19:12:10 61° NE
Cosmos 2298 Rocket 3.9 19:13:47 10° NNW 19:19:07 83° ENE 19:24:26 10° SSE
Spot 2 4.3 19:15:45 10° SSE 19:20:45 67° ENE 19:23:56 23° N
CZ-4 R/B 1.9 19:17:29 10° SSE 19:20:34 48° SSE 19:20:34 48° SSE
Cosmos 1538 Rocket 4.0 19:16:24 10° S 19:21:42 65° ESE 19:22:24 58° ENE
ASTEX 1 4.5 19:19:04 10° SSE 19:21:39 29° SE 19:21:39 29° SE
H-2A R/B 2.8 19:25:40 26° NNW 19:27:53 51° WNW 19:32:10 10° SSW
NOAA 15 4.5 19:25:14 10° SSE 19:30:32 90° WSW 19:35:50 10° NNW
Cosmos 1818 3.5 19:29:01 10° NNW 19:33:47 67° N 19:33:47 67° N
Meteor 1-18 Rocket 4.2 19:31:44 10° S 19:37:35 85° W 19:39:13 50° N
Meteor 2-4 Rocket 4.0 19:33:32 10° S 19:37:59 54° SE 19:37:59 54° SE
GPS 2-15 Rocket1 3.8 19:38:41 10° WNW 19:42:12 51° W 19:42:12 51° W
H-2A R/B 3.8 19:44:16 10° SW 19:48:23 25° SSW 19:48:23 25° SSW
USA 234 4.1 19:53:43 35° N 19:53:43 35° N 19:57:22 10° NNW
SL-16 R/B 3.6 19:50:08 10° NNW 20:00:08 17° S 20:01:23 10° S
YAOGAN 1 4.2 19:52:16 10° SSW 19:56:08 33° W 19:56:38 32° W
Hubble Space Telescope 3.2 19:53:06 10° SW 19:54:20 18° SSW 19:54:20 18° SSW
Cosmos 1553 Rocket 4.5 19:50:45 10° SSW 19:56:54 57° W 19:58:57 40° NNW
S3M 4.4 19:53:17 10° S 19:57:42 51° S 19:57:42 51° S
Aurora 2 Rocket 3.9 20:00:42 10° W 20:06:11 59° SSW 20:06:11 59° SSW
CZ-3B R/B 4.3 20:04:41 10° SW 20:12:06 34° SSE 20:12:06 34° SSE
H-2A R/B 4.1 19:13:46 10° WNW 20:13:16 86° SSW 20:16:37 56° SE
